Regional Weather Roundup
Issued by NWS Upton, NY

Current Version | Previous Version | Graphics & Text | Print | Product List | Glossary Off
Versions: 1 2 3 4 5 6 7 8 9 10 11 12 13 14 15 16 17 18 19 20 21 22 23 24 25 26 27 28 29 30 31 32 33 34 35 36 37 38 39 40 41 42 43 44 45 46 47 48 49 50

000
ASUS41 KOKX 261207
RWROKX

REGIONAL WEATHER ROUNDUP
NATIONAL WEATHER SERVICE NEW YORK NY
800 AM EDT SUN APR 26 2015

NOTE: "FAIR" INDICATES FEW OR NO CLOUDS BELOW 12,000 FEET WITH NO
SIGNIFICANT WEATHER AND/OR OBSTRUCTIONS TO VISIBILITY.

NYZ071-072-176-178-NJZ106-104-261300-
NEW YORK CITY METRO AREA


CITY           SKY/WX    TMP DP  RH WIND       PRES   REMARKS
CENTRAL PARK   MOSUNNY   49  28  44 NE8       29.73R
LAGUARDIA APRT PTSUNNY   48  31  51 NE13      29.70R
KENNEDY INTL   PTSUNNY   49  30  48 NE12      29.71R
NEWARK/LIBERTY MOSUNNY   49  32  52 N10       29.71R
BRNX BOT. GARD   N/A     50  30  46 NE7       29.73R
TETERBORO      MOSUNNY   48  31  51 N5        29.70R
$$

NYZ177-179-078>081-261300-
LONG ISLAND NEW YORK

CITY           SKY/WX    TMP DP  RH WIND       PRES   REMARKS
FARMINGDALE    MOSUNNY   48  32  53 NE6       29.70R
ISLIP          MOSUNNY   48  34  58 NE6       29.68S
SHIRLEY        MOSUNNY   47  36  65 CALM      29.70F
WESTHAMPTON    MOSUNNY   49  36  61 NE7       29.70F
MONTAUK POINT    N/A     46  37  71 N5        29.70F
$$

NYZ052-065-067-261300-
HUDSON VALLEY

CITY           SKY/WX    TMP DP  RH WIND       PRES   REMARKS
WHITE PLAINS   SUNNY     47  28  47 NE6       29.69S
NEWBURGH       SUNNY     34  34 100 CALM      29.72F
MONTGOMERY     SUNNY     38  32  79 CALM      29.71F
POUGHKEEPSIE   SUNNY     40  32  73 CALM      29.72F
ALBANY         CLOUDY    43  29  57 NW3       29.74S
$$

NJZ001-105-106-008-010-013-015-019>022-104-261300-
NEW JERSEY

CITY           SKY/WX    TMP DP  RH WIND       PRES   REMARKS
NEWARK/LIBERTY MOSUNNY   49  32  52 N10       29.71R
TETERBORO      MOSUNNY   48  31  51 N5        29.70R
CALDWELL       MOSUNNY   47  30  51 CALM      29.72R
MORRISTOWN     MOSUNNY   46  32  57 E6        29.71R
SOMERVILLE     MOSUNNY   48  28  46 NE6       29.69R
SUSSEX         SUNNY     39  31  72 CALM      29.72S
ANDOVER          N/A     41  29  62 NE5       29.72R
TRENTON        PTSUNNY   48  29  47 NE9       29.69R
MILLVILLE      CLOUDY    47  33  58 NE9       29.67R
ATLANTIC CITY  CLOUDY    46  36  68 NE7       29.67R
WRIGHTSTOWN    CLOUDY    45  33  62 NE7       29.66R
TOMS RIVER     CLOUDY    45  36  70 NE5       29.68S
BELMAR         CLOUDY    46  32  57 E9        29.69R
$$

PAZ047>061-062-071-261300-
EASTERN PENNSYLVANIA

CITY           SKY/WX    TMP DP  RH WIND       PRES   REMARKS
PHILADELPHIA   CLOUDY    49  29  46 NE15      29.69R
ALLENTOWN      SUNNY     44  29  55 CALM      29.71R
SCRANTON       SUNNY     39  27  62 CALM      29.73S
$$

CTZ002-004>006-009-010-012-RIZ004-006-007-MAZ004-011-015-261300-
SOUTHERN NEW ENGLAND
 IN CT

CITY           SKY/WX    TMP DP  RH WIND       PRES   REMARKS
BRADLEY INTL   PTSUNNY   42  30  62 W3        29.69F
HARTFORD       CLOUDY    40  34  79 SE8       29.71F WCI  34
DANBURY        SUNNY     41  30  65 CALM      29.71F
WTRBRY/OXFORD  PTSUNNY   39  28  65 N6        29.71S WCI  35
BRIDGEPORT     SUNNY     48  32  53 N6        29.70F
MERIDEN        CLOUDY    39  32  76 CALM      29.71F
NEW HAVEN      MOSUNNY   46  33  60 N7        29.70F
CHESTER        PTSUNNY   45  30  57 CALM      29.70F
GROTON         CLOUDY    45  33  63 N3        29.69F
WILLIMANTIC    CLOUDY    38  31  76 CALM      29.70F

 IN RI

CITY           SKY/WX    TMP DP  RH WIND       PRES   REMARKS
PROVIDENCE     MOSUNNY   48  30  49 NW6       29.69S
BLOCK ISLAND   MOSUNNY   45  34  65 N6        29.69F
WESTERLY       CLOUDY    42  33  70 CALM      29.70S

 IN MA

CITY           SKY/WX    TMP DP  RH WIND       PRES   REMARKS
BOSTON         MOSUNNY   46  32  58 VRB6      29.69S
WORCESTER      CLOUDY    43  28  55 NW10      29.67S
WESTFIELD      CLOUDY    40  31  70 CALM      29.69F
PROVINCETOWN   SUNNY    N/A N/A N/A NW7       29.68S
NANTUCKET      SUNNY     47  32  56 N10       29.67S
$$

ANZ330-335-338-340-345-350-353-355-261300-
COASTAL MARINE OBSERVATIONS


STATION/POSITION TIME  SKY/WX   TEMP    WIND        PRES    VSBY  WAVE
                                AIR SEA DIR/SP/G                  HT/PER
                 (UTC)          (F)     (DEG/KT/KT) (MB)    (MI)  (FT/S)
NY HARB ENTRANCE 1150            46 45   50/ 12/ 14 1005.0          2/ 3
4S FIRE IS       1103               44                N/A           2/ 5
20S FIRE ISLAND  1150            44 43   60/ 12/ 14 1005.1          2/ 3
23SW MTP         NOT AVBL
HUDSON CANYON    NOT AVBL
EXECUTION ROCKS  NOT AVBL
WESTERN LI SOUND NOT AVBL
CENTRAL LI SOUND NOT AVBL
EASTERN LI SOUND 1100            49     320/  4/  4   N/A
ROBBINS REEF     1100            47      50/ 12/ 14 1004.1
$$


>>>>>>>>>>>>>>>>>>>>>>>>>>>> KEY <<<<<<<<<<<<<<<<<<<<<<<<<<<
>                                                          <
>     SKY/WX - SKY CONDITION/PRESENT WEATHER               <
>     TMP    - TEMPERATURE IN FAHRENHEIT                   <
>     DP     - DEWPOINT IN FAHRENHEIT                      <
>     RH     - RELATIVE HUMIDITY IN PERCENT                <
>     WIND   - DIRECTION AND SPEED IN MPH                  <
>     PRES   - MEAN SEA LEVEL PRESSURE IN INCHES OF HG     <
>     WCI    - WIND CHILL INDEX                            <
>     VSB    - VISIBILITY IN MILES                         <
>     HX     - HEAT INDEX                                  <
>     TC     - TEMPERATURE IN CELSIUS                      <
>     VRB    - VARIABLE WIND DIRECTION                     <
>                                                          <
>>>>>>>>>>>>>>>>>>>>>>>>>>>> KEY <<<<<<<<<<<<<<<<<<<<<<<<<<<





USA.gov is the U.S. government's official web portal to all federal, state and local government web resources and services.